Time,TemperatureF,DewpointF,PressureIn,WindDirection,WindDirectionDegrees,WindSpeedMPH,WindSpeedGustMPH,Humidity,HourlyPrecipIn,Conditions,Clouds,dailyrainin,SolarRadiationWatts/m^2,SoftwareType,DateUTC
2013-02-16 00:03:00,12.8,5.8,30.24,SSW,206,0.0,0.0,73,0.00,RA,,0.00,0.0,WeatherDisplay:10.37,2013-02-16 06:03:00,
2013-02-16 00:08:00,12.7,5.4,30.25,WSW,254,1.1,1.1,72,0.00,RA,,0.00,0.0,WeatherDisplay:10.37,2013-02-16 06:08:00,
2013-02-16 00:13:00,12.6,5.3,30.25,NW,325,0.0,0.0,72,0.00,CLR,,0.00,0.0,WeatherDisplay:10.37,2013-02-16 06:13:00,
2013-02-16 00:18:00,12.5,5.2,30.25,WNW,302,0.0,0.1,72,0.00,CLR,,0.00,0.0,WeatherDisplay:10.37,2013-02-16 06:18:00,
2013-02-16 00:23:00,12.4,5.1,30.25,WSW,254,0.0,0.0,72,0.00,CLR,,0.00,0.0,WeatherDisplay:10.37,2013-02-16 06:23:00,
2013-02-16 00:28:00,12.3,5.0,30.25,South,175,3.0,3.0,72,0.00,CLR,,0.00,0.0,WeatherDisplay:10.37,2013-02-16 06:28:00,
2013-02-16 00:33:00,12.2,5.2,30.25,WSW,251,1.1,1.1,73,0.00,CLR,,0.00,0.0,WeatherDisplay:10.37,2013-02-16 06:33:00,
2013-02-16 00:38:00,12.2,5.2,30.25,West,267,0.0,0.0,73,0.00,CLR,,0.00,0.0,WeatherDisplay:10.37,2013-02-16 06:38:00,
2013-02-16 00:43:00,12.1,5.1,30.25,West,259,0.0,0.0,73,0.00,CLR,,0.00,0.0,WeatherDisplay:10.37,2013-02-16 06:43:00,
2013-02-16 00:48:00,12.0,5.0,30.24,West,259,0.0,0.0,73,0.00,CLR,,0.00,0.0,WeatherDisplay:10.37,2013-02-16 06:48:00,
2013-02-16 00:53:00,11.9,4.9,30.25,West,259,0.0,0.0,73,0.00,CLR,,0.00,0.0,WeatherDisplay:10.37,2013-02-16 06:53:00,
2013-02-16 00:58:00,11.8,4.8,30.25,WNW,287,0.0,0.0,73,0.00,CLR,,0.00,0.0,WeatherDisplay:10.37,2013-02-16 06:58:00,
2013-02-16 01:03:00,11.7,4.7,30.24,WNW,295,1.1,1.1,73,0.00,CLR,,0.00,0.0,WeatherDisplay:10.37,2013-02-16 07:03:00,
2013-02-16 01:08:00,11.6,4.6,30.25,SW,225,0.0,0.0,73,0.00,CLR,,0.00,0.0,WeatherDisplay:10.37,2013-02-16 07:08:00,
2013-02-16 01:13:00,11.5,4.8,30.25,WSW,237,1.1,0.0,74,0.00,CLR,,0.00,0.0,WeatherDisplay:10.37,2013-02-16 07:13:00,
2013-02-16 01:18:00,11.5,4.8,30.24,WSW,237,0.0,0.0,74,0.00,CLR,,0.00,0.0,WeatherDisplay:10.37,2013-02-16 07:18:00,
2013-02-16 01:23:00,11.3,4.6,30.25,WSW,237,0.0,0.0,74,0.00,CLR,,0.00,0.0,WeatherDisplay:10.37,2013-02-16 07:23:00,
2013-02-16 01:28:00,11.1,4.4,30.25,WSW,237,0.0,0.0,74,0.00,CLR,,0.00,0.0,WeatherDisplay:10.37,2013-02-16 07:28:00,
2013-02-16 01:33:00,11.0,4.3,30.25,SW,225,0.0,0.0,74,0.00,CLR,,0.00,0.0,WeatherDisplay:10.37,2013-02-16 07:33:00,
2013-02-16 01:38:00,10.9,4.2,30.25,SW,217,2.3,0.0,74,0.00,CLR,,0.00,0.0,WeatherDisplay:10.37,2013-02-16 07:38:00,
2013-02-16 01:43:00,10.9,4.2,30.25,NNW,328,0.0,0.0,74,0.00,CLR,,0.00,0.0,WeatherDisplay:10.37,2013-02-16 07:43:00,
2013-02-16 01:48:00,10.8,4.4,30.25,WNW,297,0.0,0.0,75,0.00,CLR,,0.00,0.0,WeatherDisplay:10.37,2013-02-16 07:48:00,
2013-02-16 01:53:00,10.8,4.4,30.25,SSW,212,0.0,0.0,75,0.00,CLR,,0.00,0.0,WeatherDisplay:10.37,2013-02-16 07:53:00,
2013-02-16 01:58:00,10.6,4.2,30.25,SW,233,0.0,0.0,75,0.00,CLR,,0.00,0.0,WeatherDisplay:10.37,2013-02-16 07:58:00,
2013-02-16 02:03:00,10.5,4.1,30.24,SW,233,0.0,0.0,75,0.00,CLR,,0.00,0.0,WeatherDisplay:10.37,2013-02-16 08:03:00,
2013-02-16 02:08:00,10.5,4.1,30.24,North,360,1.1,1.1,75,0.00,CLR,,0.00,0.0,WeatherDisplay:10.37,2013-02-16 08:08:00,
2013-02-16 02:13:00,10.4,4.0,30.24,SSW,202,2.3,2.3,75,0.00,CLR,,0.00,0.0,WeatherDisplay:10.37,2013-02-16 08:13:00,
2013-02-16 02:18:00,10.3,3.9,30.24,West,267,0.0,0.0,75,0.00,CLR,,0.00,0.0,WeatherDisplay:10.37,2013-02-16 08:18:00,
2013-02-16 02:23:00,10.2,3.8,30.24,West,271,0.0,0.0,75,0.00,CLR,,0.00,0.0,WeatherDisplay:10.37,2013-02-16 08:23:00,
2013-02-16 02:28:00,10.1,3.8,30.24,West,272,0.0,0.0,75,0.00,CLR,,0.00,0.0,WeatherDisplay:10.37,2013-02-16 08:28:00,
2013-02-16 02:33:00,10.0,3.7,30.24,WSW,250,0.0,0.0,75,0.00,CLR,,0.00,0.0,WeatherDisplay:10.37,2013-02-16 08:33:00,
2013-02-16 02:38:00,9.9,3.8,30.24,WSW,249,0.0,0.0,76,0.00,CLR,,0.00,0.0,WeatherDisplay:10.37,2013-02-16 08:38:00,
2013-02-16 02:43:00,9.8,3.7,30.24,WSW,249,0.0,0.0,76,0.00,CLR,,0.00,0.0,WeatherDisplay:10.37,2013-02-16 08:43:00,
2013-02-16 02:48:00,9.7,3.7,30.23,WSW,249,0.0,0.0,76,0.00,CLR,,0.00,0.0,WeatherDisplay:10.37,2013-02-16 08:48:00,
2013-02-16 02:53:00,9.5,3.5,30.23,WSW,249,0.0,0.0,76,0.00,CLR,,0.00,0.0,WeatherDisplay:10.37,2013-02-16 08:53:00,
2013-02-16 02:58:00,9.5,3.7,30.23,WSW,247,0.0,0.0,77,0.00,CLR,,0.00,0.0,WeatherDisplay:10.37,2013-02-16 08:58:00,
2013-02-16 03:03:00,9.3,3.5,30.23,WSW,247,0.0,0.0,77,0.00,CLR,,0.00,0.0,WeatherDisplay:10.37,2013-02-16 09:03:00,
2013-02-16 03:08:00,9.3,3.5,30.23,WSW,246,1.1,1.1,77,0.00,CLR,,0.00,0.0,WeatherDisplay:10.37,2013-02-16 09:08:00,
2013-02-16 03:13:00,9.2,3.4,30.23,WSW,246,0.0,0.0,77,0.00,CLR,,0.00,0.0,WeatherDisplay:10.37,2013-02-16 09:13:00,
2013-02-16 03:18:00,9.1,3.4,30.23,WSW,246,0.0,0.0,77,0.00,CLR,,0.00,0.0,WeatherDisplay:10.37,2013-02-16 09:18:00,
2013-02-16 03:23:00,8.9,3.2,30.23,WSW,246,0.0,0.0,77,0.00,CLR,,0.00,0.0,WeatherDisplay:10.37,2013-02-16 09:23:00,
2013-02-16 03:28:00,8.7,3.0,30.23,WSW,246,0.0,0.0,77,0.00,CLR,,0.00,0.0,WeatherDisplay:10.37,2013-02-16 09:28:00,
2013-02-16 03:33:00,8.7,3.0,30.22,WSW,246,0.0,0.0,77,0.00,CLR,,0.00,0.0,WeatherDisplay:10.37,2013-02-16 09:33:00,
2013-02-16 03:38:00,8.6,3.1,30.22,WSW,246,0.0,0.0,78,0.00,CLR,,0.00,0.0,WeatherDisplay:10.37,2013-02-16 09:38:00,
2013-02-16 03:43:00,8.5,3.0,30.23,WSW,246,0.0,0.0,78,0.00,CLR,,0.00,0.0,WeatherDisplay:10.37,2013-02-16 09:43:00,
2013-02-16 03:48:00,8.4,2.9,30.23,WSW,246,1.0,1.0,78,0.00,CLR,,0.00,0.0,WeatherDisplay:10.37,2013-02-16 09:48:00,
2013-02-16 03:53:00,8.2,2.8,30.22,WSW,246,0.0,0.0,78,0.00,CLR,,0.00,0.0,WeatherDisplay:10.37,2013-02-16 09:53:00,
2013-02-16 03:58:00,8.0,2.6,30.22,WSW,246,0.0,0.0,78,0.00,CLR,,0.00,0.0,WeatherDisplay:10.37,2013-02-16 09:58:00,
2013-02-16 04:03:00,7.8,2.4,30.22,WSW,246,0.0,0.0,78,0.00,CLR,,0.00,0.0,WeatherDisplay:10.37,2013-02-16 10:03:00,
2013-02-16 04:08:00,7.7,2.3,30.22,WSW,246,0.0,0.0,78,0.00,CLR,,0.00,0.0,WeatherDisplay:10.37,2013-02-16 10:08:00,
2013-02-16 04:13:00,7.4,2.3,30.22,WSW,246,0.0,0.0,79,0.00,CLR,,0.00,0.0,WeatherDisplay:10.37,2013-02-16 10:13:00,
2013-02-16 04:18:00,7.3,2.2,30.23,WSW,246,0.0,0.0,79,0.00,CLR,,0.00,0.0,WeatherDisplay:10.37,2013-02-16 10:18:00,
2013-02-16 04:23:00,7.1,2.0,30.23,WSW,246,0.0,0.0,79,0.00,CLR,,0.00,0.0,WeatherDisplay:10.37,2013-02-16 10:23:00,
2013-02-16 04:28:00,7.0,1.9,30.23,WSW,246,0.0,0.0,79,0.00,CLR,,0.00,0.0,WeatherDisplay:10.37,2013-02-16 10:28:00,
2013-02-16 04:33:00,6.8,1.7,30.23,WSW,246,0.0,0.0,79,0.00,CLR,,0.00,0.0,WeatherDisplay:10.37,2013-02-16 10:33:00,
2013-02-16 04:38:00,6.6,1.5,30.23,WSW,246,0.0,0.0,79,0.00,CLR,,0.00,0.0,WeatherDisplay:10.37,2013-02-16 10:38:00,
2013-02-16 04:43:00,6.5,1.6,30.23,WSW,246,0.0,0.0,80,0.00,CLR,,0.00,0.0,WeatherDisplay:10.37,2013-02-16 10:43:00,
2013-02-16 04:48:00,6.3,1.4,30.23,WSW,246,0.0,0.0,80,0.00,CLR,,0.00,0.0,WeatherDisplay:10.37,2013-02-16 10:48:00,
2013-02-16 04:53:00,6.1,1.3,30.23,WSW,246,0.0,0.0,80,0.00,CLR,,0.00,0.0,WeatherDisplay:10.37,2013-02-16 10:53:00,
2013-02-16 04:58:00,5.9,1.1,30.23,WSW,246,0.0,0.0,80,0.00,CLR,,0.00,0.0,WeatherDisplay:10.37,2013-02-16 10:58:00,
2013-02-16 05:03:00,5.7,0.9,30.23,WSW,246,0.0,0.0,80,0.00,CLR,,0.00,0.0,WeatherDisplay:10.37,2013-02-16 11:03:00,
2013-02-16 05:08:00,5.8,1.2,30.23,WSW,246,0.0,0.0,81,0.00,CLR,,0.00,0.0,WeatherDisplay:10.37,2013-02-16 11:08:00,
2013-02-16 05:13:00,5.9,1.3,30.23,WSW,246,0.0,0.0,81,0.00,CLR,,0.00,0.0,WeatherDisplay:10.37,2013-02-16 11:13:00,
2013-02-16 05:18:00,5.9,1.3,30.23,WSW,246,0.0,0.0,81,0.00,CLR,,0.00,0.0,WeatherDisplay:10.37,2013-02-16 11:18:00,
2013-02-16 05:23:00,5.7,1.1,30.23,WSW,246,0.0,0.0,81,0.00,CLR,,0.00,0.0,WeatherDisplay:10.37,2013-02-16 11:23:00,
2013-02-16 05:28:00,5.6,1.0,30.22,WSW,246,0.0,0.0,81,0.00,CLR,,0.00,0.0,WeatherDisplay:10.37,2013-02-16 11:28:00,
2013-02-16 05:33:00,5.4,0.8,30.22,WSW,246,0.0,0.0,81,0.00,CLR,,0.00,0.0,WeatherDisplay:10.37,2013-02-16 11:33:00,
2013-02-16 05:38:00,5.3,0.7,30.22,WSW,246,0.0,0.0,81,0.00,CLR,,0.00,0.0,WeatherDisplay:10.37,2013-02-16 11:38:00,
2013-02-16 05:43:00,5.1,0.5,30.22,WSW,246,0.0,0.0,81,0.00,CLR,,0.00,0.0,WeatherDisplay:10.37,2013-02-16 11:43:00,
2013-02-16 05:48:00,5.0,0.4,30.22,WSW,246,0.0,0.0,81,0.00,CLR,,0.00,0.0,WeatherDisplay:10.37,2013-02-16 11:48:00,
2013-02-16 05:53:00,4.9,0.3,30.23,WSW,246,0.0,0.0,81,0.00,CLR,,0.00,0.0,WeatherDisplay:10.37,2013-02-16 11:53:00,
2013-02-16 05:58:00,4.8,0.5,30.22,WSW,246,0.0,0.0,82,0.00,CLR,,0.00,0.0,WeatherDisplay:10.37,2013-02-16 11:58:00,
2013-02-16 06:03:00,4.9,0.6,30.22,WSW,246,0.0,0.0,82,0.00,CLR,,0.00,0.0,WeatherDisplay:10.37,2013-02-16 12:03:00,
2013-02-16 06:08:00,4.9,0.6,30.22,WSW,246,0.0,0.0,82,0.00,CLR,,0.00,0.0,WeatherDisplay:10.37,2013-02-16 12:08:00,
2013-02-16 06:13:00,5.0,0.7,30.22,WSW,246,0.0,0.0,82,0.00,CLR,,0.00,0.0,WeatherDisplay:10.37,2013-02-16 12:13:00,
2013-02-16 06:18:00,5.1,0.8,30.22,WSW,246,0.0,0.0,82,0.00,CLR,,0.00,0.0,WeatherDisplay:10.37,2013-02-16 12:18:00,
2013-02-16 06:23:00,5.1,3.3,30.22,WSW,246,0.0,0.0,92,0.00,OVC,,0.00,0.0,WeatherDisplay:10.37,2013-02-16 12:23:00,
2013-02-16 06:28:00,5.2,1.2,30.22,WSW,246,0.0,0.0,83,0.00,OVC,,0.00,0.0,WeatherDisplay:10.37,2013-02-16 12:28:00,
2013-02-16 06:33:00,5.3,1.3,30.22,WSW,246,0.0,0.0,83,0.00,OVC,,0.00,0.0,WeatherDisplay:10.37,2013-02-16 12:33:00,
2013-02-16 06:38:00,5.4,1.4,30.22,WSW,246,0.0,0.0,83,0.00,OVC,,0.00,0.0,WeatherDisplay:10.37,2013-02-16 12:38:00,
2013-02-16 06:43:00,5.5,1.5,30.22,WSW,246,0.0,0.0,83,0.00,OVC,,0.00,0.0,WeatherDisplay:10.37,2013-02-16 12:43:00,
2013-02-16 06:48:00,5.7,1.7,30.23,WSW,246,0.0,0.0,83,0.00,OVC,,0.00,0.0,WeatherDisplay:10.37,2013-02-16 12:48:00,
2013-02-16 06:53:00,5.9,1.8,30.23,WSW,246,0.0,0.0,83,0.00,OVC,,0.00,5.0,WeatherDisplay:10.37,2013-02-16 12:53:00,
2013-02-16 06:58:00,6.1,2.0,30.23,WSW,246,0.0,0.0,83,0.00,CLR,,0.00,7.0,WeatherDisplay:10.37,2013-02-16 12:58:00,
2013-02-16 07:03:00,6.3,2.5,30.23,WSW,246,0.0,0.0,84,0.00,BKN,,0.00,9.0,WeatherDisplay:10.37,2013-02-16 13:03:00,
2013-02-16 07:08:00,6.7,2.9,30.23,WSW,246,0.0,0.0,84,0.00,BKN,,0.00,12.0,WeatherDisplay:10.37,2013-02-16 13:08:00,
2013-02-16 07:13:00,7.1,3.3,30.23,WSW,246,0.0,0.0,84,0.00,BKN,,0.00,16.0,WeatherDisplay:10.37,2013-02-16 13:13:00,
2013-02-16 07:18:00,7.2,3.4,30.23,WSW,246,0.0,0.0,84,0.00,BKN,,0.00,19.0,WeatherDisplay:10.37,2013-02-16 13:18:00,
2013-02-16 07:23:00,7.4,3.6,30.23,WSW,246,0.0,0.0,84,0.00,BKN,,0.00,25.0,WeatherDisplay:10.37,2013-02-16 13:23:00,
2013-02-16 07:28:00,8.1,4.3,30.23,WSW,246,1.1,0.0,84,0.00,BKN,,0.00,30.0,WeatherDisplay:10.37,2013-02-16 13:28:00,
2013-02-16 07:33:00,8.7,4.9,30.23,SSW,196,0.0,0.0,84,0.00,BKN,,0.00,35.0,WeatherDisplay:10.37,2013-02-16 13:33:00,
2013-02-16 07:38:00,9.1,5.2,30.23,SSW,196,0.0,0.0,84,0.00,BKN,,0.00,39.0,WeatherDisplay:10.37,2013-02-16 13:38:00,
2013-02-16 07:43:00,9.5,5.6,30.23,SW,214,0.0,0.0,84,0.00,BKN,,0.00,46.0,WeatherDisplay:10.37,2013-02-16 13:43:00,
2013-02-16 07:48:00,9.8,5.7,30.23,SW,214,0.0,0.0,83,0.00,BKN,,0.00,49.0,WeatherDisplay:10.37,2013-02-16 13:48:00,
2013-02-16 07:53:00,10.0,5.9,30.23,SSW,206,0.0,0.0,83,0.00,BKN,,0.00,56.0,WeatherDisplay:10.37,2013-02-16 13:53:00,
2013-02-16 07:58:00,10.1,6.0,30.23,SSW,206,1.1,0.0,83,0.00,BKN,,0.00,62.0,WeatherDisplay:10.37,2013-02-16 13:58:00,
2013-02-16 08:03:00,10.3,5.9,30.23,SSW,206,0.0,0.0,82,0.00,BKN,,0.00,70.0,WeatherDisplay:10.37,2013-02-16 14:03:00,
2013-02-16 08:08:00,10.5,6.1,30.23,SSW,199,0.0,0.0,82,0.00,BKN,,0.00,83.0,WeatherDisplay:10.37,2013-02-16 14:08:00,
2013-02-16 08:13:00,10.8,6.4,30.23,SSW,199,0.0,0.0,82,0.00,BKN,,0.00,84.0,WeatherDisplay:10.37,2013-02-16 14:13:00,
2013-02-16 08:18:00,11.0,6.3,30.23,SSW,198,0.0,0.0,81,0.00,BKN,,0.00,95.0,WeatherDisplay:10.37,2013-02-16 14:18:00,
2013-02-16 08:23:00,11.3,6.3,30.23,SSW,199,0.0,0.0,80,0.00,SCT,,0.00,104.0,WeatherDisplay:10.37,2013-02-16 14:23:00,
2013-02-16 08:28:00,11.5,6.5,30.23,WNW,292,2.0,0.0,80,0.00,SCT,,0.00,111.0,WeatherDisplay:10.37,2013-02-16 14:28:00,
2013-02-16 08:33:00,11.7,6.4,30.23,WSW,252,3.5,3.5,79,0.00,SCT,,0.00,114.0,WeatherDisplay:10.37,2013-02-16 14:33:00,
2013-02-16 08:38:00,11.9,6.4,30.23,SSW,212,3.5,3.5,78,0.00,SCT,,0.00,127.0,WeatherDisplay:10.37,2013-02-16 14:38:00,
2013-02-16 08:43:00,12.0,6.2,30.23,WNW,295,0.0,0.0,77,0.00,SCT,,0.00,134.0,WeatherDisplay:10.37,2013-02-16 14:43:00,
2013-02-16 08:48:00,12.2,6.4,30.23,West,275,0.0,0.0,77,0.00,SCT,,0.00,137.0,WeatherDisplay:10.37,2013-02-16 14:48:00,
2013-02-16 08:53:00,12.4,6.3,30.23,NW,314,1.1,1.1,76,0.00,SCT,,0.00,149.0,WeatherDisplay:10.37,2013-02-16 14:53:00,
2013-02-16 08:58:00,12.4,6.3,30.23,SSW,213,0.0,0.0,76,0.00,SCT,,0.00,149.0,WeatherDisplay:10.37,2013-02-16 14:58:00,
2013-02-16 09:03:00,12.4,6.0,30.23,West,277,0.0,0.0,75,0.00,SCT,,0.00,156.0,WeatherDisplay:10.37,2013-02-16 15:03:00,
2013-02-16 09:08:00,12.6,6.2,30.23,NW,309,1.1,1.1,75,0.00,SCT,,0.00,162.0,WeatherDisplay:10.37,2013-02-16 15:08:00,
2013-02-16 09:13:00,12.7,6.3,30.23,NW,304,3.5,3.5,75,0.00,SCT,,0.00,176.0,WeatherDisplay:10.37,2013-02-16 15:13:00,
2013-02-16 09:18:00,12.9,6.5,30.23,WNW,294,0.0,0.0,75,0.00,SCT,,0.00,185.0,WeatherDisplay:10.37,2013-02-16 15:18:00,
2013-02-16 09:23:00,13.2,6.8,30.23,West,277,0.0,0.1,75,0.00,SCT,,0.00,186.0,WeatherDisplay:10.37,2013-02-16 15:23:00,
2013-02-16 09:28:00,13.3,6.6,30.23,NW,318,0.0,0.0,74,0.00,SCT,,0.00,204.0,WeatherDisplay:10.37,2013-02-16 15:28:00,
2013-02-16 09:33:00,13.5,6.5,30.23,WNW,301,3.5,3.5,73,0.00,SCT,,0.00,213.0,WeatherDisplay:10.37,2013-02-16 15:33:00,
2013-02-16 09:38:00,13.7,6.6,30.23,SW,235,3.5,3.5,73,0.00,SCT,,0.00,202.0,WeatherDisplay:10.37,2013-02-16 15:38:00,
2013-02-16 09:43:00,13.7,6.0,30.23,NW,304,1.1,1.1,71,0.00,SCT,,0.00,204.0,WeatherDisplay:10.37,2013-02-16 15:43:00,
2013-02-16 09:48:00,13.7,6.0,30.23,WSW,256,0.0,0.0,71,0.00,SCT,,0.00,218.0,WeatherDisplay:10.37,2013-02-16 15:48:00,
2013-02-16 09:53:00,14.1,6.4,30.23,WSW,240,2.3,2.3,71,0.00,SCT,,0.00,207.0,WeatherDisplay:10.37,2013-02-16 15:53:00,
2013-02-16 09:58:00,14.2,6.2,30.23,WNW,302,2.3,2.3,70,0.00,SCT,,0.00,250.0,WeatherDisplay:10.37,2013-02-16 15:58:00,
2013-02-16 10:03:00,14.4,6.1,30.23,WNW,298,0.0,0.0,69,0.00,SCT,,0.00,199.0,WeatherDisplay:10.37,2013-02-16 16:03:00,
2013-02-16 10:08:00,14.4,5.1,30.23,West,266,1.1,0.0,66,0.00,SCT,,0.00,193.0,WeatherDisplay:10.37,2013-02-16 16:08:00,
2013-02-16 10:13:00,14.3,4.7,30.23,NW,314,5.8,5.8,65,0.00,BKN,,0.00,190.0,WeatherDisplay:10.37,2013-02-16 16:13:00,
2013-02-16 10:18:00,14.2,4.2,30.24,NW,311,3.5,3.5,64,0.00,BKN,,0.00,234.0,WeatherDisplay:10.37,2013-02-16 16:18:00,
2013-02-16 10:23:00,14.1,4.1,30.23,WNW,295,3.5,3.5,64,0.00,BKN,,0.00,171.0,WeatherDisplay:10.37,2013-02-16 16:23:00,
2013-02-16 10:28:00,13.9,4.0,30.24,West,259,4.0,4.0,64,0.00,BKN,,0.00,239.0,WeatherDisplay:10.37,2013-02-16 16:28:00,
2013-02-16 10:33:00,13.9,4.3,30.23,WNW,296,5.8,5.8,65,0.00,BKN,,0.00,186.0,WeatherDisplay:10.37,2013-02-16 16:33:00,
2013-02-16 10:38:00,14.0,4.4,30.24,WSW,254,2.3,2.3,65,0.00,BKN,,0.00,287.0,WeatherDisplay:10.37,2013-02-16 16:38:00,
2013-02-16 10:43:00,14.1,4.1,30.24,NW,305,3.5,3.5,64,0.00,BKN,,0.00,165.0,WeatherDisplay:10.37,2013-02-16 16:43:00,
2013-02-16 10:48:00,13.9,4.3,30.24,WSW,246,1.1,1.1,65,0.00,BKN,,0.00,255.0,WeatherDisplay:10.37,2013-02-16 16:48:00,
2013-02-16 10:53:00,15.0,5.3,30.23,NW,313,1.1,1.1,65,0.00,BKN,,0.00,185.0,WeatherDisplay:10.37,2013-02-16 16:53:00,
2013-02-16 10:58:00,14.9,4.6,30.24,WNW,296,3.5,3.5,63,0.00,BKN,,0.00,220.0,WeatherDisplay:10.37,2013-02-16 16:58:00,
2013-02-16 11:03:00,14.8,4.8,30.23,SW,236,2.3,2.3,64,0.00,BKN,,0.00,244.0,WeatherDisplay:10.37,2013-02-16 17:03:00,
2013-02-16 11:08:00,15.7,5.7,30.23,West,267,1.1,1.1,64,0.00,FEW,,0.00,151.0,WeatherDisplay:10.37,2013-02-16 17:08:00,
2013-02-16 11:13:00,15.2,3.8,30.23,WNW,302,1.1,1.1,60,0.00,SCT,,0.00,91.0,WeatherDisplay:10.37,2013-02-16 17:13:00,
2013-02-16 11:18:00,15.0,4.3,30.23,SW,215,2.3,0.0,62,0.00,SCT,,0.00,733.0,WeatherDisplay:10.37,2013-02-16 17:18:00,
2013-02-16 11:23:00,15.5,4.8,30.23,WSW,254,4.6,4.6,62,0.00,SCT,,0.00,262.0,WeatherDisplay:10.37,2013-02-16 17:23:00,
2013-02-16 11:28:00,15.3,4.2,30.23,West,259,0.0,0.0,61,0.00,SCT,,0.00,98.0,WeatherDisplay:10.37,2013-02-16 17:28:00,
2013-02-16 11:33:00,15.1,4.1,30.23,WSW,241,3.5,3.5,61,0.00,SCT,,0.00,466.0,WeatherDisplay:10.37,2013-02-16 17:33:00,
2013-02-16 11:38:00,15.5,4.4,30.23,NW,308,1.0,1.0,61,0.00,SCT,,0.00,299.0,WeatherDisplay:10.37,2013-02-16 17:38:00,
2013-02-16 11:43:00,15.2,3.1,30.23,SW,218,1.1,0.0,58,0.00,BKN,,0.00,132.0,WeatherDisplay:10.37,2013-02-16 17:43:00,
2013-02-16 11:48:00,15.0,3.6,30.23,WSW,247,1.1,0.0,60,0.00,BKN,,0.00,295.0,WeatherDisplay:10.37,2013-02-16 17:48:00,
2013-02-16 11:53:00,15.4,3.6,30.23,WNW,295,4.6,4.6,59,0.00,BKN,,0.00,209.0,WeatherDisplay:10.37,2013-02-16 17:53:00,
2013-02-16 11:58:00,15.0,3.2,30.23,SW,223,5.8,5.8,59,0.00,BKN,,0.00,128.0,WeatherDisplay:10.37,2013-02-16 17:58:00,
2013-02-16 12:03:00,15.2,2.7,30.22,NW,305,5.8,5.8,57,0.00,BKN,,0.00,141.0,WeatherDisplay:10.37,2013-02-16 18:03:00,
2013-02-16 12:08:00,15.4,2.5,30.22,WSW,240,3.5,3.5,56,0.00,BKN,,0.00,325.0,WeatherDisplay:10.37,2013-02-16 18:08:00,
2013-02-16 12:13:00,16.3,4.5,30.22,WNW,291,0.0,0.0,59,0.00,SCT,,0.00,721.0,WeatherDisplay:10.37,2013-02-16 18:13:00,
2013-02-16 12:18:00,16.8,4.9,30.22,SSW,198,1.1,0.0,59,0.00,CLR,,0.00,650.0,WeatherDisplay:10.37,2013-02-16 18:18:00,
2013-02-16 12:23:00,16.3,2.5,30.22,WSW,243,6.9,6.9,54,0.00,CLR,,0.00,656.0,WeatherDisplay:10.37,2013-02-16 18:23:00,
2013-02-16 12:28:00,17.0,4.0,30.21,WNW,296,1.1,0.0,56,0.00,CLR,,0.00,652.0,WeatherDisplay:10.37,2013-02-16 18:28:00,
2013-02-16 12:33:00,17.4,4.7,30.21,WNW,291,0.0,0.5,57,0.00,CLR,,0.00,663.0,WeatherDisplay:10.37,2013-02-16 18:33:00,
2013-02-16 12:38:00,17.6,4.5,30.21,NNW,327,2.3,0.0,56,0.00,CLR,,0.00,670.0,WeatherDisplay:10.37,2013-02-16 18:38:00,
2013-02-16 12:43:00,17.5,4.5,30.21,WSW,248,0.0,0.0,56,0.00,CLR,,0.00,652.0,WeatherDisplay:10.37,2013-02-16 18:43:00,
2013-02-16 12:48:00,17.4,4.4,30.21,WNW,282,3.5,3.5,56,0.00,CLR,,0.00,654.0,WeatherDisplay:10.37,2013-02-16 18:48:00,
2013-02-16 12:53:00,17.4,4.0,30.22,SSW,202,3.5,3.5,55,0.00,CLR,,0.00,693.0,WeatherDisplay:10.37,2013-02-16 18:53:00,
2013-02-16 12:58:00,16.8,3.8,30.21,WSW,254,3.5,3.5,56,0.00,CLR,,0.00,647.0,WeatherDisplay:10.37,2013-02-16 18:58:00,
2013-02-16 13:03:00,17.0,4.4,30.21,SSW,197,1.1,1.1,57,0.00,CLR,,0.00,680.0,WeatherDisplay:10.37,2013-02-16 19:03:00,
2013-02-16 13:08:00,17.7,4.6,30.21,WNW,284,1.1,1.1,56,0.00,CLR,,0.00,649.0,WeatherDisplay:10.37,2013-02-16 19:08:00,
2013-02-16 13:13:00,17.3,3.5,30.21,West,273,3.5,3.5,54,0.00,CLR,,0.00,645.0,WeatherDisplay:10.37,2013-02-16 19:13:00,
2013-02-16 13:18:00,17.6,4.9,30.21,WNW,287,3.5,0.0,57,0.00,CLR,,0.00,638.0,WeatherDisplay:10.37,2013-02-16 19:18:00,
2013-02-16 13:23:00,17.7,5.0,30.21,NNW,347,4.6,4.6,57,0.00,CLR,,0.00,652.0,WeatherDisplay:10.37,2013-02-16 19:23:00,
2013-02-16 13:28:00,17.8,5.1,30.21,SW,224,3.5,0.0,57,0.00,CLR,,0.00,715.0,WeatherDisplay:10.37,2013-02-16 19:28:00,
2013-02-16 13:33:00,17.5,4.8,30.21,West,280,2.3,2.3,57,0.00,FEW,,0.00,137.0,WeatherDisplay:10.37,2013-02-16 19:33:00,
2013-02-16 13:38:00,18.1,6.5,30.21,West,274,2.3,2.3,60,0.00,FEW,,0.00,675.0,WeatherDisplay:10.37,2013-02-16 19:38:00,
2013-02-16 13:43:00,18.6,5.9,30.20,SSW,197,1.0,1.0,57,0.00,CLR,,0.00,510.0,WeatherDisplay:10.37,2013-02-16 19:43:00,
2013-02-16 13:48:00,18.0,5.7,30.21,WNW,299,5.8,5.8,58,0.00,CLR,,0.00,677.0,WeatherDisplay:10.37,2013-02-16 19:48:00,
2013-02-16 13:53:00,17.9,4.4,30.21,WSW,239,2.3,2.3,55,0.00,CLR,,0.00,134.0,WeatherDisplay:10.37,2013-02-16 19:53:00,
2013-02-16 13:58:00,18.0,6.1,30.20,West,274,2.3,2.3,59,0.00,CLR,,0.00,605.0,WeatherDisplay:10.37,2013-02-16 19:58:00,
2013-02-16 14:03:00,17.6,4.9,30.20,NW,323,2.3,2.3,57,0.00,FEW,,0.00,102.0,WeatherDisplay:10.37,2013-02-16 20:03:00,
2013-02-16 14:08:00,17.8,5.9,30.20,WNW,283,1.1,1.1,59,0.00,CLR,,0.00,608.0,WeatherDisplay:10.37,2013-02-16 20:08:00,
2013-02-16 14:13:00,17.9,5.2,30.20,West,278,2.3,2.3,57,0.00,CLR,,0.00,118.0,WeatherDisplay:10.37,2013-02-16 20:13:00,
2013-02-16 14:18:00,17.5,5.2,30.20,SW,229,0.0,0.0,58,0.00,FEW,,0.00,237.0,WeatherDisplay:10.37,2013-02-16 20:18:00,
2013-02-16 14:23:00,18.5,8.0,30.20,WSW,240,0.0,0.0,63,0.00,SCT,,0.00,612.0,WeatherDisplay:10.37,2013-02-16 20:23:00,
2013-02-16 14:28:00,18.7,7.1,30.20,SSW,203,2.3,0.0,60,0.00,CLR,,0.00,675.0,WeatherDisplay:10.37,2013-02-16 20:28:00,
2013-02-16 14:33:00,19.2,6.8,30.20,SW,233,1.0,2.0,58,0.00,CLR,,0.00,670.0,WeatherDisplay:10.37,2013-02-16 20:33:00,
2013-02-16 14:38:00,19.0,6.3,30.20,WSW,241,1.1,0.0,57,0.00,CLR,,0.00,624.0,WeatherDisplay:10.37,2013-02-16 20:38:00,
2013-02-16 14:43:00,17.9,4.4,30.20,WNW,286,3.5,3.5,55,0.00,CLR,,0.00,512.0,WeatherDisplay:10.37,2013-02-16 20:43:00,
2013-02-16 14:48:00,18.3,5.2,30.20,WSW,244,5.0,5.0,56,0.00,CLR,,0.00,615.0,WeatherDisplay:10.37,2013-02-16 20:48:00,
2013-02-16 14:53:00,19.4,8.5,30.20,WSW,237,4.6,4.6,62,0.00,CLR,,0.00,199.0,WeatherDisplay:10.37,2013-02-16 20:53:00,
2013-02-16 14:58:00,18.9,6.5,30.20,SW,214,0.0,0.0,58,0.00,CLR,,0.00,135.0,WeatherDisplay:10.37,2013-02-16 20:58:00,
2013-02-16 15:03:00,18.0,5.3,30.20,West,269,1.1,0.0,57,0.00,SCT,,0.00,90.0,WeatherDisplay:10.37,2013-02-16 21:03:00,
2013-02-16 15:08:00,18.0,6.1,30.21,WSW,258,1.1,1.1,59,0.00,SCT,,0.00,134.0,WeatherDisplay:10.37,2013-02-16 21:08:00,
2013-02-16 15:13:00,17.7,5.8,30.21,SW,225,3.5,3.5,59,0.00,SCT,,0.00,162.0,WeatherDisplay:10.37,2013-02-16 21:13:00,
2013-02-16 15:18:00,17.1,4.8,30.21,WSW,257,9.2,9.2,58,0.00,BKN,,0.00,81.0,WeatherDisplay:10.37,2013-02-16 21:18:00,
2013-02-16 15:23:00,16.7,4.8,30.21,SW,236,0.0,0.2,59,0.00,BKN,,0.00,70.0,WeatherDisplay:10.37,2013-02-16 21:23:00,
2013-02-16 15:28:00,16.3,4.1,30.21,WSW,241,0.0,0.1,58,0.00,BKN,,0.00,49.0,WeatherDisplay:10.37,2013-02-16 21:28:00,
2013-02-16 15:33:00,15.8,3.6,30.22,NNW,330,3.5,0.0,58,0.00,BKN,,0.00,39.0,WeatherDisplay:10.37,2013-02-16 21:33:00,
2013-02-16 15:38:00,15.5,3.7,30.22,South,180,0.0,0.0,59,0.00,BKN,,0.00,33.0,WeatherDisplay:10.37,2013-02-16 21:38:00,
2013-02-16 15:43:00,15.2,3.4,30.22,WNW,298,1.1,1.1,59,0.00,BKN,,0.00,51.0,WeatherDisplay:10.37,2013-02-16 21:43:00,
2013-02-16 15:48:00,15.1,3.7,30.22,WSW,258,1.1,1.1,60,0.00,BKN,,0.00,63.0,WeatherDisplay:10.37,2013-02-16 21:48:00,
2013-02-16 15:53:00,15.4,4.3,30.22,WSW,237,0.0,0.0,61,0.00,BKN,,0.00,272.0,WeatherDisplay:10.37,2013-02-16 21:53:00,
2013-02-16 15:58:00,16.5,4.7,30.22,NW,314,2.3,2.3,59,0.00,CLR,,0.00,288.0,WeatherDisplay:10.37,2013-02-16 21:58:00,
2013-02-16 16:03:00,16.7,4.1,30.23,WNW,301,2.3,2.3,57,0.00,CLR,,0.00,60.0,WeatherDisplay:10.37,2013-02-16 22:03:00,
2013-02-16 16:08:00,16.2,3.6,30.23,WNW,300,2.0,2.0,57,0.00,SCT,,0.00,213.0,WeatherDisplay:10.37,2013-02-16 22:08:00,
2013-02-16 16:13:00,16.2,4.0,30.23,NW,325,1.1,1.1,58,0.00,CLR,,0.00,179.0,WeatherDisplay:10.37,2013-02-16 22:13:00,
2013-02-16 16:18:00,16.3,3.7,30.23,NNW,336,0.0,1.7,57,0.00,CLR,,0.00,146.0,WeatherDisplay:10.37,2013-02-16 22:18:00,
2013-02-16 16:23:00,16.2,3.2,30.23,West,281,3.5,0.0,56,0.00,CLR,,0.00,139.0,WeatherDisplay:10.37,2013-02-16 22:23:00,
2013-02-16 16:28:00,16.0,3.4,30.23,NW,312,0.0,0.0,57,0.00,SCT,,0.00,86.0,WeatherDisplay:10.37,2013-02-16 22:28:00,
2013-02-16 16:33:00,15.9,3.3,30.23,NW,306,1.1,0.0,57,0.00,SCT,,0.00,51.0,WeatherDisplay:10.37,2013-02-16 22:33:00,
2013-02-16 16:38:00,15.7,3.1,30.23,West,278,1.1,1.1,57,0.00,BKN,,0.00,28.0,WeatherDisplay:10.37,2013-02-16 22:38:00,
2013-02-16 16:43:00,15.4,2.9,30.23,NW,305,2.3,0.0,57,0.00,BKN,,0.00,19.0,WeatherDisplay:10.37,2013-02-16 22:43:00,
2013-02-16 16:48:00,15.2,2.7,30.23,WNW,291,0.0,0.0,57,0.00,BKN,,0.00,16.0,WeatherDisplay:10.37,2013-02-16 22:48:00,
2013-02-16 16:53:00,14.9,3.1,30.23,WNW,294,0.0,0.0,59,0.00,BKN,,0.00,16.0,WeatherDisplay:10.37,2013-02-16 22:53:00,
2013-02-16 16:58:00,14.8,3.0,30.23,WNW,294,0.0,0.0,59,0.00,BKN,,0.00,16.0,WeatherDisplay:10.37,2013-02-16 22:58:00,
2013-02-16 17:03:00,14.7,2.9,30.23,WNW,293,0.0,0.0,59,0.00,BKN,,0.00,12.0,WeatherDisplay:10.37,2013-02-16 23:03:00,
2013-02-16 17:08:00,14.6,3.2,30.24,WNW,293,0.0,0.0,60,0.00,BKN,,0.00,11.0,WeatherDisplay:10.37,2013-02-16 23:08:00,
2013-02-16 17:13:00,14.5,3.1,30.24,WNW,293,0.0,0.0,60,0.00,BKN,,0.00,9.0,WeatherDisplay:10.37,2013-02-16 23:13:00,
2013-02-16 17:18:00,14.3,2.9,30.24,WNW,293,2.3,0.0,60,0.00,BKN,,0.00,7.0,WeatherDisplay:10.37,2013-02-16 23:18:00,
2013-02-16 17:23:00,14.2,2.5,30.24,WNW,290,0.0,0.2,59,0.00,SCT,,0.00,5.0,WeatherDisplay:10.37,2013-02-16 23:23:00,
2013-02-16 17:28:00,14.0,2.3,30.24,WNW,289,0.0,0.0,59,0.00,OVC,,0.00,0.0,WeatherDisplay:10.37,2013-02-16 23:28:00,
2013-02-16 17:33:00,13.9,2.6,30.24,WNW,289,0.0,0.0,60,0.00,OVC,,0.00,0.0,WeatherDisplay:10.37,2013-02-16 23:33:00,
2013-02-16 17:38:00,13.7,2.4,30.24,WNW,291,0.0,0.0,60,0.00,OVC,,0.00,0.0,WeatherDisplay:10.37,2013-02-16 23:38:00,
2013-02-16 17:43:00,13.6,2.3,30.24,WNW,289,2.3,0.0,60,0.00,OVC,,0.00,0.0,WeatherDisplay:10.37,2013-02-16 23:43:00,
2013-02-16 17:48:00,13.4,2.4,30.25,WNW,289,0.0,0.0,61,0.00,OVC,,0.00,0.0,WeatherDisplay:10.37,2013-02-16 23:48:00,
2013-02-16 17:53:00,13.2,2.6,30.25,WNW,291,0.0,0.0,62,0.00,OVC,,0.00,0.0,WeatherDisplay:10.37,2013-02-16 23:53:00,
2013-02-16 17:58:00,13.1,2.5,30.25,WNW,291,0.0,0.0,62,0.00,CLR,,0.00,0.0,WeatherDisplay:10.37,2013-02-16 23:58:00,
2013-02-16 18:03:00,12.9,2.7,30.25,WNW,290,0.0,0.0,63,0.00,CLR,,0.00,0.0,WeatherDisplay:10.37,2013-02-17 00:03:00,
2013-02-16 18:08:00,12.7,2.5,30.25,WNW,291,0.0,0.0,63,0.00,CLR,,0.00,0.0,WeatherDisplay:10.37,2013-02-17 00:08:00,
2013-02-16 18:13:00,12.5,2.3,30.25,WNW,291,0.0,0.0,63,0.00,CLR,,0.00,0.0,WeatherDisplay:10.37,2013-02-17 00:13:00,
2013-02-16 18:18:00,12.2,2.3,30.25,WNW,291,0.0,0.0,64,0.00,CLR,,0.00,0.0,WeatherDisplay:10.37,2013-02-17 00:18:00,
2013-02-16 18:23:00,12.0,2.1,30.25,WNW,291,0.0,0.0,64,0.00,CLR,,0.00,0.0,WeatherDisplay:10.37,2013-02-17 00:23:00,
2013-02-16 18:28:00,11.8,2.3,30.26,WNW,291,0.0,0.0,65,0.00,CLR,,0.00,0.0,WeatherDisplay:10.37,2013-02-17 00:28:00,
2013-02-16 18:33:00,11.6,2.1,30.26,WNW,290,0.0,0.0,65,0.00,CLR,,0.00,0.0,WeatherDisplay:10.37,2013-02-17 00:33:00,
2013-02-16 18:38:00,11.4,2.2,30.26,WNW,291,0.0,0.0,66,0.00,CLR,,0.00,0.0,WeatherDisplay:10.37,2013-02-17 00:38:00,
2013-02-16 18:43:00,11.2,2.0,30.26,WNW,291,0.0,0.0,66,0.00,CLR,,0.00,0.0,WeatherDisplay:10.37,2013-02-17 00:43:00,
2013-02-16 18:48:00,11.1,1.9,30.26,WNW,291,0.0,0.0,66,0.00,CLR,,0.00,0.0,WeatherDisplay:10.37,2013-02-17 00:48:00,
2013-02-16 18:53:00,11.0,2.2,30.26,WNW,290,0.0,0.0,67,0.00,CLR,,0.00,0.0,WeatherDisplay:10.37,2013-02-17 00:53:00,
2013-02-16 18:58:00,10.9,2.1,30.26,WNW,291,0.0,0.0,67,0.00,CLR,,0.00,0.0,WeatherDisplay:10.37,2013-02-17 00:58:00,
2013-02-16 19:03:00,10.6,2.1,30.26,WNW,291,0.0,0.0,68,0.00,CLR,,0.00,0.0,WeatherDisplay:10.37,2013-02-17 01:03:00,
2013-02-16 19:08:00,10.2,1.7,30.26,WNW,290,0.0,0.0,68,0.00,CLR,,0.00,0.0,WeatherDisplay:10.37,2013-02-17 01:08:00,
2013-02-16 19:13:00,10.0,1.5,30.26,WNW,290,0.0,0.0,68,0.00,CLR,,0.00,0.0,WeatherDisplay:10.37,2013-02-17 01:13:00,
2013-02-16 19:18:00,9.7,1.2,30.26,WNW,291,0.0,0.0,68,0.00,CLR,,0.00,0.0,WeatherDisplay:10.37,2013-02-17 01:18:00,
2013-02-16 19:23:00,9.4,1.3,30.26,WNW,291,0.0,0.0,69,0.00,CLR,,0.00,0.0,WeatherDisplay:10.37,2013-02-17 01:23:00,
2013-02-16 19:28:00,9.1,1.0,30.26,WNW,291,0.0,0.0,69,0.00,CLR,,0.00,0.0,WeatherDisplay:10.37,2013-02-17 01:28:00,
2013-02-16 19:33:00,9.0,0.9,30.26,WNW,291,0.0,0.0,69,0.00,CLR,,0.00,0.0,WeatherDisplay:10.37,2013-02-17 01:33:00,
2013-02-16 19:38:00,8.9,0.8,30.26,WNW,291,0.0,0.0,69,0.00,CLR,,0.00,0.0,WeatherDisplay:10.37,2013-02-17 01:38:00,
2013-02-16 19:43:00,8.8,0.7,30.26,WNW,290,0.0,0.0,69,0.00,CLR,,0.00,0.0,WeatherDisplay:10.37,2013-02-17 01:43:00,
2013-02-16 19:48:00,8.7,0.6,30.26,WNW,290,0.0,0.0,69,0.00,CLR,,0.00,0.0,WeatherDisplay:10.37,2013-02-17 01:48:00,
2013-02-16 19:53:00,8.7,0.6,30.26,WNW,291,0.0,0.0,69,0.00,CLR,,0.00,0.0,WeatherDisplay:10.37,2013-02-17 01:53:00,
2013-02-16 19:58:00,8.6,0.5,30.26,WNW,291,0.0,0.0,69,0.00,CLR,,0.00,0.0,WeatherDisplay:10.37,2013-02-17 01:58:00,
2013-02-16 20:03:00,8.6,0.5,30.26,WNW,291,0.0,0.0,69,0.00,CLR,,0.00,0.0,WeatherDisplay:10.37,2013-02-17 02:03:00,
2013-02-16 20:08:00,8.5,0.7,30.26,WNW,291,0.0,0.0,70,0.00,CLR,,0.00,0.0,WeatherDisplay:10.37,2013-02-17 02:08:00,
2013-02-16 20:13:00,8.3,0.5,30.26,WNW,291,0.0,0.0,70,0.00,CLR,,0.00,0.0,WeatherDisplay:10.37,2013-02-17 02:13:00,
2013-02-16 20:18:00,8.2,0.4,30.26,WNW,291,0.0,0.0,70,0.00,CLR,,0.00,0.0,WeatherDisplay:10.37,2013-02-17 02:18:00,
2013-02-16 20:23:00,8.1,0.6,30.26,WNW,290,0.0,0.0,71,0.00,CLR,,0.00,0.0,WeatherDisplay:10.37,2013-02-17 02:23:00,
2013-02-16 20:28:00,8.0,0.5,30.26,WNW,291,0.0,0.0,71,0.00,CLR,,0.00,0.0,WeatherDisplay:10.37,2013-02-17 02:28:00,
2013-02-16 20:33:00,7.8,0.3,30.26,WNW,290,0.0,0.0,71,0.00,CLR,,0.00,0.0,WeatherDisplay:10.37,2013-02-17 02:33:00,
2013-02-16 20:38:00,7.7,0.5,30.26,WNW,291,0.0,0.0,72,0.00,CLR,,0.00,0.0,WeatherDisplay:10.37,2013-02-17 02:38:00,
2013-02-16 20:43:00,7.5,0.4,30.26,WNW,291,0.0,0.0,72,0.00,CLR,,0.00,0.0,WeatherDisplay:10.37,2013-02-17 02:43:00,
2013-02-16 20:48:00,7.4,0.3,30.27,WNW,290,0.0,0.0,72,0.00,CLR,,0.00,0.0,WeatherDisplay:10.37,2013-02-17 02:48:00,
2013-02-16 20:53:00,7.3,0.2,30.27,WNW,290,0.0,0.0,72,0.00,CLR,,0.00,0.0,WeatherDisplay:10.37,2013-02-17 02:53:00,
2013-02-16 20:58:00,7.2,0.4,30.27,WNW,291,0.0,0.0,73,0.00,CLR,,0.00,0.0,WeatherDisplay:10.37,2013-02-17 02:58:00,
2013-02-16 21:03:00,6.9,0.1,30.27,WNW,291,0.0,0.0,73,0.00,CLR,,0.00,0.0,WeatherDisplay:10.37,2013-02-17 03:03:00,
2013-02-16 21:08:00,6.6,0.1,30.27,WNW,291,0.0,0.0,74,0.00,CLR,,0.00,0.0,WeatherDisplay:10.37,2013-02-17 03:08:00,
2013-02-16 21:13:00,6.4,-0.1,30.27,WNW,291,0.0,0.0,74,0.00,CLR,,0.00,0.0,WeatherDisplay:10.37,2013-02-17 03:13:00,
2013-02-16 21:18:00,6.2,-0.3,30.27,WNW,291,0.0,0.0,74,0.00,CLR,,0.00,0.0,WeatherDisplay:10.37,2013-02-17 03:18:00,
2013-02-16 21:23:00,6.1,-0.4,30.27,WNW,290,0.0,0.0,74,0.00,CLR,,0.00,0.0,WeatherDisplay:10.37,2013-02-17 03:23:00,
2013-02-16 21:28:00,5.9,-0.6,30.27,WNW,291,0.0,0.0,74,0.00,CLR,,0.00,0.0,WeatherDisplay:10.37,2013-02-17 03:28:00,
2013-02-16 21:33:00,5.7,-0.8,30.27,WNW,291,0.0,0.0,74,0.00,CLR,,0.00,0.0,WeatherDisplay:10.37,2013-02-17 03:33:00,
2013-02-16 21:38:00,5.4,-0.8,30.28,WNW,291,0.0,0.0,75,0.00,CLR,,0.00,0.0,WeatherDisplay:10.37,2013-02-17 03:38:00,
2013-02-16 21:43:00,5.1,-1.1,30.28,WNW,290,0.0,0.0,75,0.00,CLR,,0.00,0.0,WeatherDisplay:10.37,2013-02-17 03:43:00,
2013-02-16 21:48:00,4.8,-1.4,30.27,WNW,291,0.0,0.0,75,0.00,CLR,,0.00,0.0,WeatherDisplay:10.37,2013-02-17 03:48:00,
2013-02-16 21:53:00,4.6,-1.6,30.27,WNW,291,0.0,0.0,75,0.00,CLR,,0.00,0.0,WeatherDisplay:10.37,2013-02-17 03:53:00,
2013-02-16 21:58:00,4.4,-1.8,30.27,WNW,291,0.0,0.0,75,0.00,CLR,,0.00,0.0,WeatherDisplay:10.37,2013-02-17 03:58:00,
2013-02-16 22:03:00,4.2,-1.7,30.27,WNW,291,0.0,0.0,76,0.00,CLR,,0.00,0.0,WeatherDisplay:10.37,2013-02-17 04:03:00,
2013-02-16 22:08:00,3.9,-2.0,30.27,WNW,291,0.0,0.0,76,0.00,CLR,,0.00,0.0,WeatherDisplay:10.37,2013-02-17 04:08:00,
2013-02-16 22:13:00,3.8,-1.8,30.27,WNW,291,0.0,0.0,77,0.00,CLR,,0.00,0.0,WeatherDisplay:10.37,2013-02-17 04:13:00,
2013-02-16 22:18:00,3.7,-1.9,30.27,WNW,291,0.0,0.0,77,0.00,CLR,,0.00,0.0,WeatherDisplay:10.37,2013-02-17 04:18:00,
2013-02-16 22:23:00,3.6,-2.0,30.27,WNW,290,0.0,0.0,77,0.00,CLR,,0.00,0.0,WeatherDisplay:10.37,2013-02-17 04:23:00,
2013-02-16 22:28:00,3.5,-1.8,30.27,WNW,291,0.0,0.0,78,0.00,CLR,,0.00,0.0,WeatherDisplay:10.37,2013-02-17 04:28:00,
2013-02-16 22:33:00,3.4,-1.9,30.27,WNW,290,0.0,0.0,78,0.00,CLR,,0.00,0.0,WeatherDisplay:10.37,2013-02-17 04:33:00,
2013-02-16 22:38:00,3.3,-2.0,30.27,WNW,290,0.0,0.0,78,0.00,CLR,,0.00,0.0,WeatherDisplay:10.37,2013-02-17 04:38:00,
2013-02-16 22:43:00,3.1,-2.2,30.27,WNW,291,0.0,0.0,78,0.00,CLR,,0.00,0.0,WeatherDisplay:10.37,2013-02-17 04:43:00,
2013-02-16 22:48:00,2.9,-2.1,30.27,WNW,291,0.0,0.0,79,0.00,CLR,,0.00,0.0,WeatherDisplay:10.37,2013-02-17 04:48:00,
2013-02-16 22:53:00,2.8,-2.2,30.27,WNW,291,0.0,0.0,79,0.00,CLR,,0.00,0.0,WeatherDisplay:10.37,2013-02-17 04:53:00,
2013-02-16 22:58:00,2.7,-2.3,30.27,WNW,291,0.0,0.0,79,0.00,CLR,,0.00,0.0,WeatherDisplay:10.37,2013-02-17 04:58:00,
2013-02-16 23:00:00,2.6,-2.4,30.27,WNW,291,0.0,0.0,79,0.00,CLR,,0.00,0.0,WeatherDisplay:10.37,2013-02-17 05:00:00,
2013-02-16 23:01:00,2.7,-2.3,30.27,WNW,291,0.0,0.0,79,0.00,CLR,,0.00,0.0,WeatherDisplay:10.37,2013-02-17 05:01:00,
2013-02-16 23:06:00,2.6,-2.2,30.27,WNW,291,0.0,0.0,80,0.00,CLR,,0.00,0.0,WeatherDisplay:10.37,2013-02-17 05:06:00,
2013-02-16 23:11:00,2.5,-2.3,30.27,WNW,291,0.0,0.0,80,0.00,CLR,,0.00,0.0,WeatherDisplay:10.37,2013-02-17 05:11:00,
2013-02-16 23:16:00,2.5,-2.3,30.27,WNW,291,0.0,0.0,80,0.00,CLR,,0.00,0.0,WeatherDisplay:10.37,2013-02-17 05:16:00,
2013-02-16 23:21:00,2.4,-2.4,30.27,WNW,290,0.0,0.0,80,0.00,CLR,,0.00,0.0,WeatherDisplay:10.37,2013-02-17 05:21:00,
2013-02-16 23:26:00,2.3,-2.5,30.27,WNW,291,0.0,0.0,80,0.00,CLR,,0.00,0.0,WeatherDisplay:10.37,2013-02-17 05:26:00,
2013-02-16 23:31:00,2.1,-2.7,30.27,WNW,290,0.0,0.0,80,0.00,CLR,,0.00,0.0,WeatherDisplay:10.37,2013-02-17 05:31:00,
2013-02-16 23:36:00,2.0,-2.8,30.27,WNW,291,0.0,0.0,80,0.00,CLR,,0.00,0.0,WeatherDisplay:10.37,2013-02-17 05:36:00,
2013-02-16 23:41:00,2.0,-2.5,30.27,WNW,291,0.0,0.0,81,0.00,CLR,,0.00,0.0,WeatherDisplay:10.37,2013-02-17 05:41:00,
2013-02-16 23:46:00,1.9,-2.6,30.27,WNW,290,0.0,0.0,81,0.00,CLR,,0.00,0.0,WeatherDisplay:10.37,2013-02-17 05:46:00,
2013-02-16 23:51:00,1.7,-2.8,30.27,WNW,291,0.0,0.0,81,0.00,CLR,,0.00,0.0,WeatherDisplay:10.37,2013-02-17 05:51:00,
2013-02-16 23:56:00,1.5,-3.0,30.27,WNW,290,0.0,0.0,81,0.00,CLR,,0.00,0.0,WeatherDisplay:10.37,2013-02-17 05:56:00,